FW2847 Weather Reports


time (UTC)temp
F
wind
direction
speed
knots
gust
knots
rain 1hr
in
rain 24hr
in
rain mn
in
humidity
%
barometer
mb
20260506044403 30 25 0.0 0.0 0.00 0.16 0.16 96 1020.6
20260506043907 30 33 0.0 0.0 0.00 0.16 0.16 96 1020.6
20260506043902 30 51 0.0 0.0 0.00 0.16 0.16 96 1020.6
20260506043525 30 26 0.0 0.0 0.00 0.16 0.16 96 1020.6
20260506042403 30 13 0.0 0.9 0.00 0.16 0.16 96 1020.6
20260506042136 30 24 0.0 0.9 0.00 0.16 0.16 96 1020.6
20260506041634 30 317 0.0 1.7 0.00 0.16 0.16 96 1020.6
20260506040902 30 19 0.0 1.7 0.00 0.16 0.16 96 1020.6
20260506040637 30 340 0.0 1.7 0.00 0.16 0.16 96 1020.6
20260506035902 30 310 0.0 3.5 0.00 0.16 0.16 96 1020.6
20260506035630 30 356 0.9 3.5 0.00 0.16 0.16 96 1020.6
20260506035130 30 347 0.9 3.5 0.00 0.16 0.16 96 1020.6
20260506034400 30 347 1.7 4.3 0.00 0.17 0.16 96 1020.6
20260506034356 30 327 1.7 4.3 0.00 0.16 0.16 96 1020.6
20260506033350 30 345 0.9 3.5 0.00 0.17 0.16 96 1020.6
20260506032850 30 331 0.9 3.5 0.00 0.18 0.16 96 1020.6
20260506032348 30 338 0.9 3.5 0.00 0.19 0.16 96 1020.6
20260506031851 30 2 0.0 2.6 0.00 0.20 0.16 96 1020.6
20260506031350 30 309 0.9 2.6 0.00 0.22 0.16 96 1020.6
20260506031119 30 17 0.0 2.6 0.00 0.23 0.16 96 1020.6
20260506030350 30 359 0.0 0.9 0.00 0.24 0.16 96 1020.6
20260506025850 30 13 0.0 1.7 0.00 0.26 0.16 96 1020.6
20260506025348 30 36 0.0 1.7 0.00 0.27 0.16 96 1020.6
20260506024848 30 343 0.9 2.6 0.00 0.29 0.16 96 1020.6
20260506024349 30 333 0.9 3.5 0.00 0.31 0.16 96 1020.6
20260506024117 30 319 0.9 3.5 0.00 0.32 0.16 96 1020.6
20260506023346 30 323 0.0 1.7 0.00 0.32 0.16 96 1020.6
20260506022851 30 321 0.0 2.6 0.00 0.32 0.16 96 1020.6
20260506022847 30 321 0.0 2.6 0.00 0.32 0.16 96 1020.6
20260506021848 30 356 0.9 2.6 0.00 0.32 0.16 96 1020.6
20260506021345 30 343 0.9 2.6 0.00 0.32 0.16 96 1020.6
20260506020846 30 326 0.9 2.6 0.00 0.32 0.16 96 1020.6
20260506020345 30 328 0.9 2.6 0.00 0.32 0.16 96 1020.6
20260506015845 30 322 0.9 2.6 0.00 0.32 0.16 96 1020.6
20260506015343 30 330 0.9 2.6 0.00 0.32 0.16 96 1020.6
20260506014844 30 315 0.9 2.6 0.00 0.32 0.16 96 1020.6
20260506014342 30 11 0.0 2.6 0.00 0.32 0.16 96 1020.6
20260506013842 30 13 0.0 2.6 0.00 0.32 0.16 96 1020.6
20260506013343 31 6 0.0 2.6 0.00 0.32 0.16 96 1020.6
20260506012849 31 4 0.9 3.5 0.00 0.32 0.16 96 1020.6
20260506012844 31 56 0.9 2.6 0.00 0.32 0.16 96 1020.6
20260506012113 31 4 0.9 3.5 0.00 0.32 0.16 96 1020.6
20260506011343 31 354 0.9 3.5 0.00 0.32 0.16 96 1020.6
20260506010842 31 347 1.7 4.3 0.00 0.32 0.16 96 1020.6
20260506010342 31 301 1.7 4.3 0.00 0.32 0.16 96 1020.6
20260506005843 31 338 1.7 4.3 0.00 0.32 0.16 96 1020.6
20260506005342 31 47 1.7 5.2 0.00 0.32 0.16 96 1020.6
20260506004843 31 358 2.6 6.1 0.00 0.32 0.16 96 1020.6
20260506004342 31 4 2.6 6.1 0.00 0.32 0.16 96 1020.6
20260506003844 31 326 3.5 6.1 0.00 0.32 0.16 96 1020.6
20260506003343 31 36 3.5 6.1 0.00 0.32 0.16 96 1020.6
20260506002842 31 316 3.5 7.0 0.00 0.32 0.16 96 1020.6
20260506002342 31 352 3.5 7.0 0.00 0.32 0.16 96 1020.6
20260506001844 31 354 3.5 6.1 0.00 0.32 0.16 96 1020.6
20260506001340 31 352 3.5 6.1 0.00 0.32 0.16 96 1020.6
20260506001113 31 20 3.5 6.1 0.00 0.32 0.16 96 1020.6
20260506000611 31 26 3.5 8.7 0.00 0.32 0.16 96 1020.6
20260505235841 31 350 3.5 8.7 0.00 0.32 0.16 96 1020.6
20260505235342 31 345 3.5 6.1 0.00 0.32 0.16 96 1020.6
20260505235111 31 340 3.5 5.2 0.00 0.32 0.16 96 1020.6
20260505234612 31 345 2.6 7.0 0.00 0.32 0.16 96 1020.6
20260505233841 31 6 2.6 7.0 0.00 0.32 0.16 96 1020.6
20260505233341 31 326 2.6 8.7 0.00 0.32 0.16 96 1020.6
20260505232840 31 352 3.5 8.7 0.00 0.32 0.16 96 1020.6
20260505232338 31 329 4.3 8.7 0.00 0.32 0.16 96 1020.6
20260505231839 31 8 4.3 8.7 0.00 0.32 0.16 96 1020.6
20260505231340 31 0 4.3 8.7 0.00 0.32 0.16 96 1020.6
20260505230839 31 327 4.3 8.7 0.00 0.32 0.16 96 1020.6
20260505230339 31 323 5.2 11.3 0.00 0.32 0.16 96 1020.6
20260505225838 31 351 5.2 11.3 0.00 0.32 0.16 96 1020.6
20260505225340 31 335 5.2 9.6 0.00 0.32 0.16 96 1020.6
20260505224839 31 317 5.2 9.6 0.00 0.32 0.16 96 1020.6
20260505224610 31 8 5.2 10.4 0.00 0.32 0.16 96 1020.6
20260505223838 31 293 4.3 10.4 0.00 0.32 0.16 96 1020.6
20260505223336 31 39 5.2 10.4 0.00 0.32 0.16 96 1020.6
20260505222837 31 32 5.2 10.4 0.00 0.32 0.16 96 1020.6
20260505222606 31 320 4.3 11.3 0.01 0.32 0.16 96 1020.6
20260505221836 32 5 5.2 11.3 0.01 0.32 0.16 96 1020.6
20260505221337 32 26 6.1 13.0 0.01 0.32 0.16 96 1020.6
20260505220836 32 15 6.1 13.0 0.01 0.32 0.16 96 1020.6
20260505220609 32 36 5.2 8.7 0.01 0.32 0.16 96 1020.6
20260505215841 32 338 4.3 11.3 0.01 0.32 0.16 96 1020.6
20260505215837 32 347 4.3 11.3 0.01 0.32 0.16 96 1020.6
20260505214838 32 321 5.2 8.7 0.02 0.32 0.16 96 1020.6
20260505214609 32 324 5.2 11.3 0.02 0.32 0.16 96 1020.6
20260505213836 32 44 5.2 13.0 0.02 0.32 0.16 96 1020.6
20260505213607 33 337 3.5 13.0 0.02 0.32 0.16 96 1020.6
20260505212836 33 343 1.7 6.1 0.03 0.32 0.16 96 1020.6
20260505212337 33 332 1.7 4.3 0.02 0.31 0.15 96 1020.6
20260505211837 33 8 1.7 4.3 0.02 0.31 0.15 96 1020.6
20260505211337 34 9 1.7 4.3 0.03 0.31 0.15 96 1020.6
20260505210836 35 33 0.9 4.3 0.04 0.31 0.15 96 1020.6
20260505210336 35 43 1.7 4.3 0.04 0.31 0.15 96 1020.6
20260505205835 35 59 0.9 4.3 0.04 0.31 0.15 96 1020.6
20260505205337 35 11 0.9 4.3 0.04 0.31 0.15 96 1020.6
20260505204837 35 65 1.7 4.3 0.03 0.30 0.14 96 1020.6
20260505204336 35 37 1.7 4.3 0.03 0.30 0.14 96 1020.6
20260505203837 35 51 0.9 4.3 0.03 0.30 0.14 96 1020.6
20260505203335 35 79 0.9 3.5 0.03 0.30 0.14 96 1020.6
20260505202834 35 41 1.7 3.5 0.02 0.29 0.14 96 1020.6
20260505202333 34 63 1.7 5.2 0.02 0.29 0.13 96 1020.6
20260505202103 34 64 1.7 6.1 0.02 0.29 0.13 96 1020.6
20260505201332 34 40 1.7 6.1 0.01 0.28 0.12 96 1020.6
20260505200832 34 37 2.6 6.1 0.00 0.27 0.11 96 1020.6
20260505200333 36 34 2.6 6.1 0.00 0.27 0.11 96 1020.6
20260505195834 36 53 1.7 4.3 0.00 0.27 0.11 96 1020.6
20260505195604 36 58 1.7 4.3 0.00 0.27 0.11 96 1020.6
20260505194832 36 77 2.6 5.2 0.00 0.27 0.11 96 1020.6
20260505194339 36 59 1.7 4.3 0.01 0.27 0.11 96 1020.6
20260505194334 36 71 2.6 5.2 0.00 0.27 0.11 96 1020.6
20260505193331 36 77 0.9 4.3 0.01 0.27 0.11 96 1020.6
20260505192835 36 100 0.9 2.6 0.01 0.27 0.11 96 1020.6
20260505192333 36 84 0.9 3.5 0.01 0.27 0.11 96 1020.6
20260505191831 36 96 1.7 3.5 0.01 0.27 0.11 96 1020.6
20260505191332 36 96 1.7 3.5 0.01 0.27 0.11 96 1020.6
20260505190833 36 93 1.7 3.5 0.01 0.27 0.11 96 1020.6
20260505190334 36 79 1.7 4.3 0.01 0.27 0.11 96 1020.6
20260505185834 37 99 1.7 4.3 0.01 0.27 0.11 96 1020.6
20260505185332 36 82 1.7 3.5 0.01 0.27 0.11 96 1020.6
20260505184830 36 84 0.9 3.5 0.02 0.27 0.11 96 1020.6
20260505184604 36 95 1.7 4.3 0.02 0.27 0.11 96 1020.6
20260505183830 35 79 0.9 4.3 0.01 0.26 0.10 96 1020.6
20260505183333 36 95 0.9 2.6 0.01 0.26 0.10 96 1020.6
20260505183327 36 68 0.9 2.6 0.01 0.26 0.10 96 1020.6
20260505182327 36 70 0.9 1.7 0.01 0.26 0.10 96 1020.6
20260505181828 36 91 0.9 3.5 0.01 0.26 0.10 96 1020.6
20260505181325 35 98 0.9 3.5 0.01 0.26 0.10 96 1020.6
20260505180827 35 74 1.7 3.5 0.01 0.26 0.10 96 1020.6
20260505180555 35 79 1.7 5.2 0.01 0.26 0.10 96 1020.6
20260505175824 35 81 1.7 5.2 0.01 0.26 0.10 96 1020.6
20260505175555 35 72 0.9 2.6 0.01 0.26 0.10 96 1020.6
20260505174824 35 37 0.9 4.3 0.00 0.25 0.09 96 1020.6
20260505174323 35 75 0.9 4.3 0.00 0.25 0.09 96 1020.6
20260505173823 35 75 0.9 3.5 0.00 0.25 0.09 96 1020.6
20260505173326 35 40 0.9 3.5 0.00 0.25 0.09 96 1020.6
20260505173054 35 65 0.9 3.5 0.00 0.25 0.09 96 1020.6
20260505172323 35 56 0.9 3.5 0.01 0.25 0.09 96 1020.6
20260505172055 35 12 0.9 3.5 0.01 0.25 0.09 96 1020.6
20260505171554 35 353 0.9 3.5 0.01 0.25 0.09 96 1020.6
20260505170823 35 49 0.9 3.5 0.01 0.25 0.09 96 1020.6
20260505170326 35 28 0.9 2.6 0.01 0.25 0.09 96 1020.6
20260505165826 35 25 0.9 2.6 0.01 0.25 0.09 96 1020.6
20260505165821 35 353 0.9 2.6 0.01 0.25 0.09 96 1020.6
20260505164823 35 15 0.9 2.6 0.01 0.25 0.09 96 1020.6
20260505164322 35 52 0.0 2.6 0.01 0.25 0.09 96 1020.6
20260505163821 35 356 0.0 1.7 0.01 0.25 0.09 96 1020.6
20260505163322 35 13 0.0 2.6 0.01 0.25 0.09 96 1020.6
20260505162827 35 347 0.9 3.5 0.00 0.24 0.08 96 1020.6
20260505162821 35 8 0.9 3.5 0.01 0.25 0.09 96 1020.6
20260505162443 35 39 0.9 2.6 0.00 0.24 0.08 96 1020.6
20260505161323 35 29 0.9 2.6 0.00 0.24 0.08 96 1020.6
20260505161053 35 23 0.9 2.6 0.01 0.24 0.08 96 1020.6
20260505160322 35 18 0.9 2.6 0.01 0.24 0.08 96 1020.6
20260505153321 34 10 0.0 1.7 0.02 0.24 0.08 95 1020.6
20260505153052 34 57 0.0 1.7 0.02 0.24 0.08 95 1020.6
20260505152321 34 15 0.0 1.7 0.02 0.24 0.08 95 1020.6
20260505151819 34 32 0.0 2.6 0.02 0.24 0.08 95 1020.6
20260505151320 34 15 0.0 2.6 0.03 0.24 0.08 95 1020.6
20260505151047 34 347 0.0 2.6 0.02 0.23 0.07 95 1020.6
20260505150315 34 301 0.0 2.6 0.02 0.23 0.07 95 1020.6
20260505140316 32 311 1.7 4.3 0.00 0.21 0.05 95 1020.6
20260505130311 32 27 2.6 6.1 0.00 0.21 0.05 95 1020.6
20260505124811 32 292 3.5 7.0 0.00 0.21 0.05 94 1020.6
20260505124314 32 342 3.5 7.0 0.00 0.21 0.05 94 1020.6
20260505123811 32 347 2.6 6.1 0.00 0.21 0.05 94 1020.6
20260505123313 32 12 2.6 6.1 0.00 0.21 0.05 94 1020.6
20260505122812 32 350 2.6 6.1 0.00 0.21 0.05 94 1020.6
20260505122312 32 334 2.6 5.2 0.00 0.21 0.05 94 1020.6
20260505121814 32 311 2.6 5.2 0.00 0.21 0.05 94 1020.6
20260505121541 32 328 2.6 6.1 0.00 0.21 0.05 94 1020.6
20260505120815 32 310 2.6 7.0 0.01 0.21 0.05 94 1020.6
20260505120310 32 336 2.6 7.0 0.01 0.21 0.05 94 1020.6
20260505115814 32 316 2.6 6.1 0.02 0.21 0.05 94 1020.6
20260505115315 33 355 2.6 6.1 0.02 0.21 0.05 94 1020.6
20260505115039 33 328 1.7 6.1 0.02 0.21 0.05 94 1020.6
20260505114308 33 15 2.6 8.7 0.02 0.21 0.05 94 1020.6
20260505113814 33 15 3.5 8.7 0.02 0.21 0.05 94 1020.6
20260505113311 33 330 3.5 9.6 0.03 0.21 0.05 94 1020.6
20260505112808 33 9 4.3 9.6 0.03 0.21 0.05 94 1020.6
20260505112309 34 297 5.2 11.3 0.03 0.21 0.05 93 1020.6
20260505111817 34 349 5.2 13.0 0.03 0.21 0.05 93 1020.6
20260505111813 34 21 6.1 13.0 0.03 0.21 0.05 93 1020.6
20260505110810 35 295 4.3 10.4 0.02 0.20 0.04 94 1020.6
20260505110309 35 30 5.2 11.3 0.02 0.20 0.04 94 1020.6
20260505102040 37 277 6.1 13.0 0.02 0.18 0.02 94 1020.6
20260505101313 37 35 6.1 13.0 0.02 0.18 0.02 94 1020.6
20260505100811 37 296 6.1 13.0 0.02 0.18 0.02 94 1020.6
20260505100540 37 352 6.1 13.0 0.02 0.18 0.02 94 1020.6
20260505095814 38 15 6.1 12.2 0.01 0.17 0.01 94 1020.6
20260505095312 38 347 7.0 13.9 0.01 0.17 0.01 94 1020.6
20260505094810 38 51 7.8 13.9 0.01 0.17 0.01 94 1020.6
20260505094540 39 356 7.8 13.9 0.01 0.17 0.01 94 1020.6
20260505093811 39 326 7.8 13.9 0.01 0.17 0.01 93 1020.6
20260505093314 39 238 7.0 13.0 0.01 0.17 0.01 93 1020.6
20260505093309 39 323 7.0 13.9 0.01 0.17 0.01 93 1020.6
20260505092311 39 313 7.0 13.0 0.01 0.17 0.01 93 1020.6
20260505091807 39 340 7.0 12.2 0.00 0.16 0.00 93 1020.6
20260505091307 39 356 7.0 13.0 0.00 0.16 0.00 93 1020.6
20260505091039 39 321 7.0 13.0 0.00 0.16 0.00 93 1020.6
20260505090307 39 308 6.1 11.3 0.00 0.16 0.00 93 1020.6
20260505085808 39 4 6.1 11.3 0.00 0.16 0.00 92 1020.6
20260505085306 39 343 7.0 13.0 0.00 0.16 0.00 92 1020.6
20260505084810 39 7 7.0 13.0 0.00 0.16 0.00 92 1020.6
20260505084305 40 34 6.1 13.0 0.00 0.16 0.00 92 1020.6
20260505083805 40 1 6.1 13.0 0.00 0.16 0.00 92 1020.6
20260505083306 40 311 6.1 10.4 0.00 0.16 0.00 91 1020.6
20260505082807 40 0 6.1 10.4 0.00 0.16 0.00 91 1020.6
20260505082305 40 336 6.1 11.3 0.00 0.16 0.00 91 1020.6
20260505081805 40 324 7.0 13.0 0.00 0.16 0.00 91 1020.6
20260505081310 42 350 6.1 10.4 0.00 0.16 0.00 90 1020.6
20260505081306 41 337 6.1 13.0 0.00 0.16 0.00 90 1020.6
20260505080305 43 29 5.2 10.4 0.00 0.16 0.00 89 1020.6
20260505075806 44 23 2.6 10.4 0.00 0.16 0.00 89 1020.6
20260505075306 45 310 0.9 4.3 0.00 0.16 0.00 89 1020.6
20260505074806 45 344 0.0 2.6 0.00 0.16 0.00 89 1020.6
20260505074304 44 111 0.0 0.0 0.00 0.16 0.00 89 1020.6
20260505073806 44 111 0.0 0.0 0.00 0.16 0.00 88 1020.6
20260505073306 44 111 0.0 0.0 0.00 0.16 0.00 88 1020.6
20260505072806 44 111 0.0 0.0 0.00 0.16 0.00 88 1020.6
20260505072305 44 111 0.0 0.0 0.00 0.16 0.00 88 1020.6
20260505071804 44 111 0.0 0.0 0.00 0.16 0.00 88 1020.6
20260505071537 44 111 0.0 0.0 0.00 0.16 0.00 87 1020.6
20260505070803 44 111 0.0 0.0 0.00 0.16 0.00 88 1020.6
20260505070533 44 111 0.0 0.0 0.00 0.16 0.00 88 1020.6
20260505065804 44 111 0.0 0.0 0.00 0.16 0.00 88 1020.6
20260505065303 44 111 0.0 0.0 0.00 0.16 0.00 88 1020.6
20260505064758 44 111 0.0 0.0 0.00 0.16 0.00 88 1020.6
20260505064300 45 111 0.0 0.0 0.00 0.16 0.00 88 1020.6
20260505064033 45 111 0.0 0.0 0.00 0.16 0.00 88 1020.6
20260505063259 45 111 0.0 0.0 0.00 0.16 0.00 88 1020.6
20260505062757 45 111 0.0 0.0 0.00 0.16 0.00 87 1020.6
20260505062257 45 111 0.0 0.0 0.00 0.16 0.00 87 1020.6
20260505062029 45 111 0.0 0.0 0.00 0.16 0.00 87 1020.6
20260505061255 45 111 0.0 0.0 0.00 0.16 0.00 87 1020.6
20260505060754 45 111 0.0 0.0 0.00 0.16 0.00 87 1020.6
20260505060527 45 111 0.0 0.0 0.00 0.16 0.00 87 1020.6
20260505055755 45 111 0.0 0.0 0.00 0.16 0.16 87 1020.6
20260505055255 44 111 0.0 0.0 0.00 0.16 0.16 87 1020.6
20260505055027 44 111 0.0 0.0 0.00 0.16 0.16 87 1020.6
20260505054255 44 111 0.0 0.0 0.00 0.16 0.16 87 1020.6
20260505053754 44 111 0.0 0.0 0.00 0.16 0.16 87 1020.6
20260505053253 44 275 0.0 0.0 0.00 0.16 0.16 88 1020.6
20260505052754 44 275 0.0 0.0 0.00 0.16 0.16 88 1020.6
20260505052524 44 129 0.0 0.0 0.00 0.16 0.16 87 1020.6
20260505051752 44 129 0.0 0.9 0.00 0.16 0.16 87 1020.6
20260505051253 44 99 0.0 0.9 0.00 0.16 0.16 87 1020.6
20260505050755 44 105 0.0 0.0 0.00 0.16 0.16 87 1020.6
20260505050524 44 110 0.0 0.0 0.00 0.16 0.16 87 1020.6